Weather in Zunyi

China     27°42′00″N   106°55′39″E
temp.,
°C
wind,
m/s
gust,
m/s
humid.,
%
clouds,
%
prec.,
mm/h
press.,
hPa
HPBL,
m
8 may, sat
sat823:00+15n2292100 0.0 101411
02:00+15nw119387 0.0 101311
05:00+13wnw11945 0.0 101211
08:00+16w118550 0.0 1013216
11:00+22nw126498 0.0 10121095
14:00+24w125498 0.0 10091582
17:00+24nnw11565 0.0 10081024
20:00+20sse11711 0.0 100911
9 may, sun
sun923:00+18nne11780 0.0 101011
02:00+17ene00850 0.0 100911
05:00+16se008830 0.0 100911
08:00+18e118119 0.0 1009156
11:00+24ese23645 0.0 1008737
14:00+27sse345740 0.0 10051544
17:00+23e597940 3.4 1002221
20:00+21sw1188100 13.9 100417
10 may, mon
mon1023:00+20n229193 4.9 100521
02:00+19nw0092100 6.3 100311
05:00+18e1195100 4.4 100212
08:00+20ese12881 4.6 1003238
11:00+24s357690 0.2 1003926
14:00+27ssw3561100 2.6 10001349
17:00+28s255827 2.5 9981261
20:00+21s238662 9.9 100048
11 may, tue
tue1123:00+20ese2295100 7.6 100264
02:00+19nnw2397100 20.8 1000133
05:00+19nw119598 5.6 100216
08:00+21w118954 5.6 1004276
11:00+24w347334 2.2 1005959
14:00+25wnw446943 3.4 10031115
17:00+24nw446836 0.9 10031054
20:00+20nnw338529 0.9 100671
12 may, wed
wed1223:00+18nnw238957 0.1 100875
02:00+18n2287100 0.3 1007113
05:00+18nw1188100 0.3 100663
08:00+18wnw1187100 0.3 1007110
11:00+21ene1178100 0.1 1007569
14:00+22ne2177100 0.1 1005690
17:00+23ene3375100 0.1 1003840
20:00+20ne249167 1.1 1003125